sat.trackr.live / text

‹ back to catalog

NORSAT 2

NORAD 42828 · 2017-042D

PAYLOAD ACTIVE UNKNOWN

§ Identity

Operator
Country
NOR
Launch date
2017-07-14
Launch site
TYMSC
Launch vehicle
Mass (kg)
RCS (m²)

External: N2YO · Heavens-Above · Gunter

§ Orbital elements

Epoch: 2026-05-25T00:17:14.798976Z

Period
94.65 min
Inclination
97.4033°
Eccentricity
0.0010931
Mean motion
15.21386841 rev/d
Perigee alt
494.1 km
Apogee alt
509.2 km
Semi-major
6,879.8 km
B*
4.1474e-4
RAAN
318.8315°
Arg perigee
129.3540°
Mean anomaly
230.8666°
Rev number
48,421

§ Raw data

NORSAT 21 42828U 17042D   26145.01197684  .00009251  00000+0  41474-3 0  99912 42828  97.4033 318.8315 0010931 129.3540 230.8666 15.21386841484218

JSON: /api/v1/satellites/42828 · /tle

For live sub-satellite position, see the globe view (requires WebGL).

§ Visibility from observer

Set your observer location to see the next 7 days of passes ≥ 10°. The values pass through the URL so the page stays shareable.

No JS? Fill the form by hand. The geolocation button needs JavaScript.

§ Radio — SatNOGS DB

ModeDescriptionDownlinkUplink
FM Mode L 2.209 GHz
GMSK NORSAT-2 VDES transmitter 161.788 MHz–161.938 MHz 157.188 MHz–157.338 MHz

2 transmitters · refreshed weekly from db.satnogs.org